Tracking 17780 objects as of 27-July-2016
HD Live streaming from Space Station
objects crossing your sky now

ARIANE 44LP DEB

Track ARIANE 44LP DEB now!
10-day predictions


NORAD ID: 27662
Int'l Code: 1991-015N
Perigee: 436.4 km
Apogee: 24,063.0 km
Inclination: 6.0 °
Period: 421.5 minutes
Semi major axis: 18620 km
RCS: 0.2322 m2 (medium)
Launch date: March 2, 1991
Source: France (FR)
Launch site: FRENCH GUIANA (FRGUI)

Note: This is SATELLITE DEBRIS
Your satellite tracking list
Your tracking list is empty





NASA's NSSDC Master Catalog

Two Line Element Set (TLE):
1 27662U 91015N   16205.52340737  .00000416  00000-0  82697-3 0  9990
2 27662   6.0266  21.1846 6344176 314.1378   8.5514  3.41672368201281
Source of the keplerian elements: AFSPC

N2YO: 837